Salisbury, MD

2:47 AM EDT on March 23, 2017 (GMT -0400)
Salisbury-Ocean City Wicomico Regional

Weather History for KSBY - February, 2013

Change the Weather History Date:

Thursday, February 7, 2013

  Actual Average Record
Temperature  
Mean Temperature 35 °F 36 °F  
Max Temperature 45 °F 46 °F 69 °F (2008)
Min Temperature 25 °F 27 °F 1 °F (1996)
Degree Days  
Heating Degree Days 30 29  
Month to date heating degree days 216 203  
Since 1 July heating degree days 2280 2744  
Cooling Degree Days 0 0  
Month to date cooling degree days 0 0  
Year to date cooling degree days 0 0  
Moisture  
Dew Point 27 °F    
Average Humidity 61    
Maximum Humidity 81    
Minimum Humidity 41    
Precipitation  
Precipitation T in 0.12 in 0.88 in (1967)
Month to date precipitation 0.01 0.83  
Year to date precipitation 3.01 4.44  
Snow  
Snow 0.00 in 0.10 in 15.00 in (1936)
Month to date snowfall 0.0 1.0  
Since 1 July snowfall 2.8 6.0  
Snow Depth 0.00 in    
Sea Level Pressure  
Sea Level Pressure 30.37 in    
Wind  
Wind Speed 5 mph (ENE)    
Max Wind Speed 10 mph    
Max Gust Speed 15 mph    
Visibility 9 miles    
Events Rain    
T = Trace of Precipitation, MM = Missing Value Source: NWS Daily Summary

Daily Weather History Graph

Daily Weather History Graph

Search for Another Location

Airport or City:

Trip Planner

Search our weather history database for the weather conditions in past years. The results will help you decide how hot, cold, wet, or windy it might be!

Date:

Astronomy

Feb. 07, 2013 Rise Set
Actual Time 7:01 AM EST 5:31 PM EST
Civil Twilight 6:33 AM EST 5:59 PM EST
Nautical Twilight 6:02 AM EST 6:30 PM EST
Astronomical Twilight 5:31 AM EST 7:01 PM EST
Moon 4:37 AM EST (2/7) 2:54 PM EST (2/7)
Length of Visible Light 11h 25m
Length of Day
10h 30m
Waning Crescent, 9% of the Moon is Illuminated
Feb 7
Waning Crescent
Feb 10
New
Feb 17
First Quarter
Feb 25
Full
Mar 4
Last Quarter

Hourly Weather History & Observations

Time (EST) Temp. Windchill Dew Point Humidity Pressure Visibility Wind Dir Wind Speed Gust Speed Precip Events Conditions
12:54 AM 28.0 °F - 21.9 °F 78% 30.37 in 9.0 mi Calm Calm - N/A   Clear
1:54 AM 27.0 °F - 21.0 °F 78% 30.40 in 8.0 mi Calm Calm - N/A   Clear
2:54 AM 25.0 °F - 19.0 °F 78% 30.40 in 9.0 mi Calm Calm - N/A   Clear
3:54 AM 27.0 °F - 21.9 °F 81% 30.40 in 7.0 mi Calm Calm - N/A   Clear
4:54 AM 25.0 °F - 19.9 °F 81% 30.40 in 8.0 mi Calm Calm - N/A   Clear
5:54 AM 28.0 °F - 21.0 °F 75% 30.42 in 9.0 mi Calm Calm - N/A   Clear
6:54 AM 28.0 °F - 21.9 °F 78% 30.42 in 7.0 mi Calm Calm - N/A   Clear
7:54 AM 30.0 °F 26.5 °F 23.0 °F 75% 30.45 in 6.0 mi NNW 3.5 mph - N/A   Haze
8:54 AM 35.1 °F 31.0 °F 27.0 °F 72% 30.45 in 9.0 mi NE 4.6 mph - N/A   Clear
9:54 AM 39.0 °F 34.0 °F 26.1 °F 60% 30.46 in 10.0 mi ENE 6.9 mph - N/A   Clear
10:54 AM 41.0 °F 36.4 °F 23.0 °F 49% 30.47 in 10.0 mi ENE 6.9 mph - N/A   Clear
12:54 PM 44.1 °F 39.0 °F 23.0 °F 43% 30.40 in 10.0 mi East 9.2 mph - N/A   Clear
1:54 PM 45.0 °F 39.7 °F 25.0 °F 46% 30.38 in 10.0 mi East 10.4 mph - N/A   Clear
2:54 PM 43.0 °F 36.4 °F 26.1 °F 51% 30.35 in 10.0 mi ENE 12.7 mph - N/A   Clear
3:54 PM 44.1 °F 38.1 °F 28.9 °F 55% 30.34 in 10.0 mi ENE 11.5 mph - N/A   Clear
5:54 PM 42.1 °F 37.7 °F 30.9 °F 65% 30.32 in 10.0 mi ENE 6.9 mph - N/A   Unknown
6:54 PM 39.9 °F 35.8 °F 32.0 °F 73% 30.32 in 10.0 mi ENE 5.8 mph - N/A   Clear
7:54 PM 41.0 °F 37.1 °F 33.1 °F 73% 30.31 in 10.0 mi NE 5.8 mph - N/A   Mostly Cloudy
8:54 PM 41.0 °F 39.0 °F 33.1 °F 73% 30.30 in 10.0 mi ENE 3.5 mph - N/A   Scattered Clouds
9:54 PM 41.0 °F 36.4 °F 34.0 °F 76% 30.26 in 10.0 mi NE 6.9 mph - N/A   Overcast
10:54 PM 42.1 °F 39.2 °F 35.1 °F 76% 30.22 in 10.0 mi NE 4.6 mph - N/A   Overcast
11:54 PM 42.1 °F - 37.0 °F 82% 30.20 in 10.0 mi Calm Calm - 0.00 in Rain Light Rain